Year,Month,Day,Hour,Minute,Value (Times are PST for temperature in C)
2012,09,18,00,00,21.60
2012,09,18,00,01,21.60
2012,09,18,00,02,21.60
2012,09,18,00,03,21.60
2012,09,18,00,04,21.60
2012,09,18,00,05,21.60
2012,09,18,00,06,21.50
2012,09,18,00,07,21.50
2012,09,18,00,08,21.50
2012,09,18,00,09,21.40
2012,09,18,00,10,21.40
2012,09,18,00,11,21.40
2012,09,18,00,12,21.50
2012,09,18,00,13,21.50
2012,09,18,00,14,21.60
2012,09,18,00,15,21.60
2012,09,18,00,16,21.60
2012,09,18,00,17,21.70
2012,09,18,00,18,21.70
2012,09,18,00,19,21.70
2012,09,18,00,20,21.70
2012,09,18,00,21,21.70
2012,09,18,00,22,21.70
2012,09,18,00,23,21.70
2012,09,18,00,24,21.70
2012,09,18,00,25,21.70
2012,09,18,00,26,21.70
2012,09,18,00,27,21.80
2012,09,18,00,28,21.80
2012,09,18,00,29,21.80
2012,09,18,00,30,21.80
2012,09,18,00,31,21.80
2012,09,18,00,32,21.80
2012,09,18,00,33,21.80
2012,09,18,00,34,21.80
2012,09,18,00,35,21.80
2012,09,18,00,36,21.80
2012,09,18,00,37,21.70
2012,09,18,00,38,21.70
2012,09,18,00,39,21.70
2012,09,18,00,40,21.60
2012,09,18,00,41,21.60
2012,09,18,00,42,21.50
2012,09,18,00,43,21.40
2012,09,18,00,44,21.40
2012,09,18,00,45,21.40
2012,09,18,00,46,21.30
2012,09,18,00,47,21.30
2012,09,18,00,48,21.20
2012,09,18,00,49,21.20
2012,09,18,00,50,21.10
2012,09,18,00,51,21.00
2012,09,18,00,52,21.00
2012,09,18,00,53,20.90
2012,09,18,00,54,20.80
2012,09,18,00,55,20.80
2012,09,18,00,56,20.80
2012,09,18,00,57,20.70
2012,09,18,00,58,20.70
2012,09,18,00,59,20.60
2012,09,18,01,00,20.50
2012,09,18,01,01,20.50
2012,09,18,01,02,20.40
2012,09,18,01,03,20.40
2012,09,18,01,04,20.40
2012,09,18,01,05,20.40
2012,09,18,01,06,20.40
2012,09,18,01,07,20.30
2012,09,18,01,08,20.30
2012,09,18,01,09,20.30
2012,09,18,01,10,20.30
2012,09,18,01,11,20.20
2012,09,18,01,12,20.20
2012,09,18,01,13,20.20
2012,09,18,01,14,20.20
2012,09,18,01,15,20.10
2012,09,18,01,16,20.10
2012,09,18,01,17,20.10
2012,09,18,01,18,20.00
2012,09,18,01,19,20.00
2012,09,18,01,20,19.90
2012,09,18,01,21,19.90
2012,09,18,01,22,19.80
2012,09,18,01,23,19.70
2012,09,18,01,24,19.70
2012,09,18,01,25,19.70
2012,09,18,01,26,19.60
2012,09,18,01,27,19.50
2012,09,18,01,28,19.50
2012,09,18,01,29,19.50
2012,09,18,01,30,19.40
2012,09,18,01,31,19.30
2012,09,18,01,32,19.30
2012,09,18,01,33,19.30
2012,09,18,01,34,19.20
2012,09,18,01,35,19.20
2012,09,18,01,36,19.10
2012,09,18,01,37,19.00
2012,09,18,01,38,18.90
2012,09,18,01,39,18.90
2012,09,18,01,40,18.80
2012,09,18,01,41,18.70
2012,09,18,01,42,18.60
2012,09,18,01,43,18.50
2012,09,18,01,44,18.40
2012,09,18,01,45,18.30
2012,09,18,01,46,18.20
2012,09,18,01,47,18.10
2012,09,18,01,48,18.00
2012,09,18,01,49,17.90
2012,09,18,01,50,17.90
2012,09,18,01,51,17.80
2012,09,18,01,52,17.70
2012,09,18,01,53,17.70
2012,09,18,01,54,17.60
2012,09,18,01,55,17.50
2012,09,18,01,56,17.40
2012,09,18,01,57,17.40
2012,09,18,01,58,17.30
2012,09,18,01,59,17.30
2012,09,18,02,00,17.20
2012,09,18,02,01,17.10
2012,09,18,02,02,17.10
2012,09,18,02,03,17.00
2012,09,18,02,04,16.90
2012,09,18,02,05,16.90
2012,09,18,02,06,16.80
2012,09,18,02,07,16.80
2012,09,18,02,08,16.70
2012,09,18,02,09,16.70
2012,09,18,02,10,16.70
2012,09,18,02,11,16.60
2012,09,18,02,12,16.60
2012,09,18,02,13,16.60
2012,09,18,02,14,16.60
2012,09,18,02,15,16.50
2012,09,18,02,16,16.40
2012,09,18,02,17,16.40
2012,09,18,02,18,16.30
2012,09,18,02,19,16.30
2012,09,18,02,20,16.20
2012,09,18,02,21,16.20
2012,09,18,02,22,16.20
2012,09,18,02,23,16.20
2012,09,18,02,24,16.10
2012,09,18,02,25,16.10
2012,09,18,02,26,16.00
2012,09,18,02,27,16.00
2012,09,18,02,28,15.90
2012,09,18,02,29,15.80
2012,09,18,02,30,15.80
2012,09,18,02,31,15.80
2012,09,18,02,32,15.70
2012,09,18,02,33,15.70
2012,09,18,02,34,15.60
2012,09,18,02,35,15.60
2012,09,18,02,36,15.50
2012,09,18,02,37,15.50
2012,09,18,02,38,15.40
2012,09,18,02,39,15.40
2012,09,18,02,40,15.40
2012,09,18,02,41,15.40
2012,09,18,02,42,15.30
2012,09,18,02,43,15.30
2012,09,18,02,44,15.30
2012,09,18,02,45,15.30
2012,09,18,02,46,15.30
2012,09,18,02,47,15.30
2012,09,18,02,48,15.30
2012,09,18,02,49,15.30
2012,09,18,02,50,15.20
2012,09,18,02,51,15.20
2012,09,18,02,52,15.20
2012,09,18,02,53,15.20
2012,09,18,02,54,15.20
2012,09,18,02,55,15.10
2012,09,18,02,56,15.10
2012,09,18,02,57,15.10
2012,09,18,02,58,15.00
2012,09,18,02,59,15.00
2012,09,18,03,00,14.90
2012,09,18,03,01,14.90
2012,09,18,03,02,14.90
2012,09,18,03,03,14.80
2012,09,18,03,04,14.80
2012,09,18,03,05,14.80
2012,09,18,03,06,14.80
2012,09,18,03,07,14.80
2012,09,18,03,08,14.80
2012,09,18,03,09,14.80
2012,09,18,03,10,14.70
2012,09,18,03,11,14.70
2012,09,18,03,12,14.70
2012,09,18,03,13,14.70
2012,09,18,03,14,14.70
2012,09,18,03,15,14.80
2012,09,18,03,16,15.00
2012,09,18,03,17,15.20
2012,09,18,03,18,15.30
2012,09,18,03,19,15.40
2012,09,18,03,20,15.50
2012,09,18,03,21,15.60
2012,09,18,03,22,15.70
2012,09,18,03,23,15.70
2012,09,18,03,24,15.80
2012,09,18,03,25,15.80
2012,09,18,03,26,15.90
2012,09,18,03,27,15.90
2012,09,18,03,28,16.00
2012,09,18,03,29,16.10
2012,09,18,03,30,16.10
2012,09,18,03,31,16.20
2012,09,18,03,32,16.20
2012,09,18,03,33,16.20
2012,09,18,03,34,16.20
2012,09,18,03,35,16.30
2012,09,18,03,36,16.30
2012,09,18,03,37,16.30
2012,09,18,03,38,16.40
2012,09,18,03,39,16.40
2012,09,18,03,40,16.40
2012,09,18,03,41,16.40
2012,09,18,03,42,16.50
2012,09,18,03,43,16.60
2012,09,18,03,44,16.60
2012,09,18,03,45,16.60
2012,09,18,03,46,16.60
2012,09,18,03,47,16.70
2012,09,18,03,48,16.70
2012,09,18,03,49,16.70
2012,09,18,03,50,16.70
2012,09,18,03,51,16.70
2012,09,18,03,52,16.70
2012,09,18,03,53,16.70
2012,09,18,03,54,16.70
2012,09,18,03,55,16.80
2012,09,18,03,56,16.80
2012,09,18,03,57,16.80
2012,09,18,03,58,16.90
2012,09,18,03,59,16.90
2012,09,18,04,00,16.90
2012,09,18,04,01,16.90
2012,09,18,04,02,16.90
2012,09,18,04,03,17.00
2012,09,18,04,04,17.00
2012,09,18,04,05,17.10
2012,09,18,04,06,17.10
2012,09,18,04,07,17.20
2012,09,18,04,08,17.20
2012,09,18,04,09,17.20
2012,09,18,04,10,17.20
2012,09,18,04,11,17.20
2012,09,18,04,12,17.20
2012,09,18,04,13,17.20
2012,09,18,04,14,17.10
2012,09,18,04,15,17.10
2012,09,18,04,16,17.00
2012,09,18,04,17,17.00
2012,09,18,04,18,16.90
2012,09,18,04,19,16.80
2012,09,18,04,20,16.70
2012,09,18,04,21,16.60
2012,09,18,04,22,16.50
2012,09,18,04,23,16.40
2012,09,18,04,24,16.30
2012,09,18,04,25,16.30
2012,09,18,04,26,16.20
2012,09,18,04,27,16.10
2012,09,18,04,28,16.10
2012,09,18,04,29,16.00
2012,09,18,04,30,16.00
2012,09,18,04,31,16.00
2012,09,18,04,32,15.90
2012,09,18,04,33,15.90
2012,09,18,04,34,15.90
2012,09,18,04,35,16.00
2012,09,18,04,36,16.00
2012,09,18,04,37,16.10
2012,09,18,04,38,16.10
2012,09,18,04,39,16.10
2012,09,18,04,40,16.20
2012,09,18,04,41,16.20
2012,09,18,04,42,16.20
2012,09,18,04,43,16.20
2012,09,18,04,44,16.20
2012,09,18,04,45,16.20
2012,09,18,04,46,16.20
2012,09,18,04,47,16.20
2012,09,18,04,48,16.10
2012,09,18,04,49,16.10
2012,09,18,04,50,16.10
2012,09,18,04,51,16.10
2012,09,18,04,52,16.20
2012,09,18,04,53,16.20
2012,09,18,04,54,16.20
2012,09,18,04,55,16.30
2012,09,18,04,56,16.30
2012,09,18,04,57,16.30
2012,09,18,04,58,16.30
2012,09,18,04,59,16.30
2012,09,18,05,00,16.30
2012,09,18,05,01,16.30
2012,09,18,05,02,16.30
2012,09,18,05,03,16.20
2012,09,18,05,04,16.20
2012,09,18,05,05,16.20
2012,09,18,05,06,16.20
2012,09,18,05,07,16.10
2012,09,18,05,08,16.00
2012,09,18,05,09,15.90
2012,09,18,05,10,15.80
2012,09,18,05,11,15.70
2012,09,18,05,12,15.60
2012,09,18,05,13,15.40
2012,09,18,05,14,15.30
2012,09,18,05,15,15.20
2012,09,18,05,16,15.10
2012,09,18,05,17,15.00
2012,09,18,05,18,14.90
2012,09,18,05,19,14.80
2012,09,18,05,20,14.80
2012,09,18,05,21,14.70
2012,09,18,05,22,14.70
2012,09,18,05,23,14.60
2012,09,18,05,24,14.60
2012,09,18,05,25,14.60
2012,09,18,05,26,14.60
2012,09,18,05,27,14.60
2012,09,18,05,28,14.50
2012,09,18,05,29,14.60
2012,09,18,05,30,14.60
2012,09,18,05,31,14.60
2012,09,18,05,32,14.70
2012,09,18,05,33,14.70
2012,09,18,05,34,14.70
2012,09,18,05,35,14.80
2012,09,18,05,36,14.80
2012,09,18,05,37,14.80
2012,09,18,05,38,14.80
2012,09,18,05,39,14.80
2012,09,18,05,40,14.80
2012,09,18,05,41,14.80
2012,09,18,05,42,14.70
2012,09,18,05,43,14.70
2012,09,18,05,44,14.70
2012,09,18,05,45,14.70
2012,09,18,05,46,14.60
2012,09,18,05,47,14.50
2012,09,18,05,48,14.40
2012,09,18,05,49,14.40
2012,09,18,05,50,14.30
2012,09,18,05,51,14.30
2012,09,18,05,52,14.30
2012,09,18,05,53,14.20
2012,09,18,05,54,14.20
2012,09,18,05,55,14.10
2012,09,18,05,56,14.10
2012,09,18,05,57,14.10
2012,09,18,05,58,14.00
2012,09,18,05,59,13.90
2012,09,18,06,00,13.90
2012,09,18,06,01,13.90
2012,09,18,06,02,13.80
2012,09,18,06,03,13.80
2012,09,18,06,04,13.80
2012,09,18,06,05,13.80
2012,09,18,06,06,13.70
2012,09,18,06,07,13.70
2012,09,18,06,08,13.70
2012,09,18,06,09,13.60
2012,09,18,06,10,13.60
2012,09,18,06,11,13.60
2012,09,18,06,12,13.50
2012,09,18,06,13,13.50
2012,09,18,06,14,13.40
2012,09,18,06,15,13.40
2012,09,18,06,16,13.40
2012,09,18,06,17,13.30
2012,09,18,06,18,13.30
2012,09,18,06,19,13.30
2012,09,18,06,20,13.30
2012,09,18,06,21,13.30
2012,09,18,06,22,13.20
2012,09,18,06,23,13.20
2012,09,18,06,24,13.20
2012,09,18,06,25,13.20
2012,09,18,06,26,13.10
2012,09,18,06,27,13.10
2012,09,18,06,28,13.00
2012,09,18,06,29,13.00
2012,09,18,06,30,13.00
2012,09,18,06,31,12.90
2012,09,18,06,32,12.90
2012,09,18,06,33,12.90
2012,09,18,06,34,12.90
2012,09,18,06,35,12.80
2012,09,18,06,36,12.80
2012,09,18,06,37,12.80
2012,09,18,06,38,12.80
2012,09,18,06,39,12.80
2012,09,18,06,40,12.80
2012,09,18,06,41,12.80
2012,09,18,06,42,12.80
2012,09,18,06,43,12.80
2012,09,18,06,44,12.70
2012,09,18,06,45,12.70
2012,09,18,06,46,12.70
2012,09,18,06,47,12.70
2012,09,18,06,48,12.70
2012,09,18,06,49,12.70
2012,09,18,06,50,12.70
2012,09,18,06,51,12.60
2012,09,18,06,52,12.60
2012,09,18,06,53,12.60
2012,09,18,06,54,12.60
2012,09,18,06,55,12.50
2012,09,18,06,56,12.50
2012,09,18,06,57,12.40
2012,09,18,06,58,12.40
2012,09,18,06,59,12.40
2012,09,18,07,00,12.30
2012,09,18,07,01,12.30
2012,09,18,07,02,12.30
2012,09,18,07,03,12.30
2012,09,18,07,04,12.30
2012,09,18,07,05,12.30
2012,09,18,07,06,12.30
2012,09,18,07,07,12.30
2012,09,18,07,08,12.30
2012,09,18,07,09,12.30
2012,09,18,07,10,12.40
2012,09,18,07,11,12.40
2012,09,18,07,12,12.40
2012,09,18,07,13,12.40
2012,09,18,07,14,12.40
2012,09,18,07,15,12.40
2012,09,18,07,16,12.40
2012,09,18,07,17,12.40
2012,09,18,07,18,12.40
2012,09,18,07,19,12.40
2012,09,18,07,20,12.50
2012,09,18,07,21,12.50
2012,09,18,07,22,12.50
2012,09,18,07,23,12.50
2012,09,18,07,24,12.50
2012,09,18,07,25,12.50
2012,09,18,07,26,12.60
2012,09,18,07,27,12.60
2012,09,18,07,28,12.60
2012,09,18,07,29,12.70
2012,09,18,07,30,12.70
2012,09,18,07,31,12.70
2012,09,18,07,32,12.70
2012,09,18,07,33,12.80
2012,09,18,07,34,12.80
2012,09,18,07,35,12.80
2012,09,18,07,36,12.80
2012,09,18,07,37,12.80
2012,09,18,07,38,12.80
2012,09,18,07,39,12.90
2012,09,18,07,40,12.90
2012,09,18,07,41,12.90
2012,09,18,07,42,12.90
2012,09,18,07,43,13.00
2012,09,18,07,44,13.00
2012,09,18,07,45,13.00
2012,09,18,07,46,13.10
2012,09,18,07,47,13.10
2012,09,18,07,48,13.10
2012,09,18,07,49,13.10
2012,09,18,07,50,13.20
2012,09,18,07,51,13.20
2012,09,18,07,52,13.20
2012,09,18,07,53,13.20
2012,09,18,07,54,13.20
2012,09,18,07,55,13.20
2012,09,18,07,56,13.30
2012,09,18,07,57,13.30
2012,09,18,07,58,13.30
2012,09,18,07,59,13.30
2012,09,18,08,00,13.30
2012,09,18,08,01,13.40
2012,09,18,08,02,13.40
2012,09,18,08,03,13.50
2012,09,18,08,04,13.50
2012,09,18,08,05,13.50
2012,09,18,08,06,13.60
2012,09,18,08,07,13.60
2012,09,18,08,08,13.70
2012,09,18,08,09,13.70
2012,09,18,08,10,13.80
2012,09,18,08,11,13.80
2012,09,18,08,12,13.80
2012,09,18,08,13,13.90
2012,09,18,08,14,13.90
2012,09,18,08,15,14.00
2012,09,18,08,16,14.10
2012,09,18,08,17,14.10
2012,09,18,08,18,14.20
2012,09,18,08,19,14.20
2012,09,18,08,20,14.30
2012,09,18,08,21,14.30
2012,09,18,08,22,14.40
2012,09,18,08,23,14.40
2012,09,18,08,24,14.50
2012,09,18,08,25,14.50
2012,09,18,08,26,14.60
2012,09,18,08,27,14.60
2012,09,18,08,28,14.70
2012,09,18,08,29,14.80
2012,09,18,08,30,14.80
2012,09,18,08,31,14.90
2012,09,18,08,32,15.00
2012,09,18,08,33,15.10
2012,09,18,08,34,15.20
2012,09,18,08,35,15.30
2012,09,18,08,36,15.40
2012,09,18,08,37,15.50
2012,09,18,08,38,15.60
2012,09,18,08,39,15.70
2012,09,18,08,40,15.80
2012,09,18,08,41,15.90
2012,09,18,08,42,16.00
2012,09,18,08,43,16.10
2012,09,18,08,44,16.30
2012,09,18,08,45,16.40
2012,09,18,08,46,16.50
2012,09,18,08,47,16.60
2012,09,18,08,48,16.70
2012,09,18,08,49,16.80
2012,09,18,08,50,16.90
2012,09,18,08,51,16.90
2012,09,18,08,52,17.00
2012,09,18,08,53,17.10
2012,09,18,08,54,17.20
2012,09,18,08,55,17.20
2012,09,18,08,56,17.30
2012,09,18,08,57,17.30
2012,09,18,08,58,17.40
2012,09,18,08,59,17.50
2012,09,18,09,00,17.50
2012,09,18,09,01,17.60
2012,09,18,09,02,17.70
2012,09,18,09,03,17.70
2012,09,18,09,04,17.80
2012,09,18,09,05,17.80
2012,09,18,09,06,17.80
2012,09,18,09,07,17.90
2012,09,18,09,08,17.90
2012,09,18,09,09,18.00
2012,09,18,09,10,18.10
2012,09,18,09,11,18.10
2012,09,18,09,12,18.10
2012,09,18,09,13,18.10
2012,09,18,09,14,18.10
2012,09,18,09,15,18.20
2012,09,18,09,16,18.20
2012,09,18,09,17,18.20
2012,09,18,09,18,18.20
2012,09,18,09,19,18.20
2012,09,18,09,20,18.20
2012,09,18,09,21,18.30
2012,09,18,09,22,18.30
2012,09,18,09,23,18.30
2012,09,18,09,24,18.30
2012,09,18,09,25,18.30
2012,09,18,09,26,18.40
2012,09,18,09,27,18.40
2012,09,18,09,28,18.40
2012,09,18,09,29,18.50
2012,09,18,09,30,18.50
2012,09,18,09,31,18.50
2012,09,18,09,32,18.60
2012,09,18,09,33,18.60
2012,09,18,09,34,18.60
2012,09,18,09,35,18.70
2012,09,18,09,36,18.70
2012,09,18,09,37,18.70
2012,09,18,09,38,18.80
2012,09,18,09,39,18.80
2012,09,18,09,40,18.80
2012,09,18,09,41,18.90
2012,09,18,09,42,19.00
2012,09,18,09,43,19.00
2012,09,18,09,44,19.10
2012,09,18,09,45,19.10
2012,09,18,09,46,19.20
2012,09,18,09,47,19.20
2012,09,18,09,48,19.30
2012,09,18,09,49,19.40
2012,09,18,09,50,19.40
2012,09,18,09,51,19.50
2012,09,18,09,52,19.60
2012,09,18,09,53,19.70
2012,09,18,09,54,19.70
2012,09,18,09,55,19.80
2012,09,18,09,56,19.90
2012,09,18,09,57,19.90
2012,09,18,09,58,19.90
2012,09,18,09,59,20.00
2012,09,18,10,00,20.00
2012,09,18,10,01,20.10
2012,09,18,10,02,20.10
2012,09,18,10,03,20.10
2012,09,18,10,04,20.20
2012,09,18,10,05,20.20
2012,09,18,10,06,20.20
2012,09,18,10,07,20.20
2012,09,18,10,08,20.20
2012,09,18,10,09,20.20
2012,09,18,10,10,20.20
2012,09,18,10,11,20.10
2012,09,18,10,12,20.10
2012,09,18,10,13,20.10
2012,09,18,10,14,20.10
2012,09,18,10,15,20.10
2012,09,18,10,16,20.10
2012,09,18,10,17,20.10
2012,09,18,10,18,20.10
2012,09,18,10,19,20.10
2012,09,18,10,20,20.10
2012,09,18,10,21,20.10
2012,09,18,10,22,20.10
2012,09,18,10,23,20.10
2012,09,18,10,24,20.10
2012,09,18,10,25,20.10
2012,09,18,10,26,20.10
2012,09,18,10,27,20.10
2012,09,18,10,28,20.10
2012,09,18,10,29,20.10
2012,09,18,10,30,20.10
2012,09,18,10,31,20.10
2012,09,18,10,32,20.20
2012,09,18,10,33,20.20
2012,09,18,10,34,20.20
2012,09,18,10,35,20.30
2012,09,18,10,36,20.30
2012,09,18,10,37,20.30
2012,09,18,10,38,20.30
2012,09,18,10,39,20.30
2012,09,18,10,40,20.30
2012,09,18,10,41,20.30
2012,09,18,10,42,20.30
2012,09,18,10,43,20.30
2012,09,18,10,44,20.30
2012,09,18,10,45,20.20
2012,09,18,10,46,20.20
2012,09,18,10,47,20.20
2012,09,18,10,48,20.30
2012,09,18,10,49,20.30
2012,09,18,10,50,20.30
2012,09,18,10,51,20.40
2012,09,18,10,52,20.50
2012,09,18,10,53,20.50
2012,09,18,10,54,20.60
2012,09,18,10,55,20.70
2012,09,18,10,56,20.70
2012,09,18,10,57,20.70
2012,09,18,10,58,20.80
2012,09,18,10,59,20.90
2012,09,18,11,00,21.00
2012,09,18,11,01,21.00
2012,09,18,11,02,21.00
2012,09,18,11,03,21.00
2012,09,18,11,04,21.00
2012,09,18,11,05,21.00
2012,09,18,11,06,21.00
2012,09,18,11,07,20.90
2012,09,18,11,08,20.90
2012,09,18,11,09,20.90
2012,09,18,11,10,20.80
2012,09,18,11,11,20.80
2012,09,18,11,12,20.80
2012,09,18,11,13,20.80
2012,09,18,11,14,20.80
2012,09,18,11,15,20.80
2012,09,18,11,16,20.80
2012,09,18,11,17,20.80
2012,09,18,11,18,20.80
2012,09,18,11,19,20.80
2012,09,18,11,20,20.90
2012,09,18,11,21,20.90
2012,09,18,11,22,21.00
2012,09,18,11,23,21.00
2012,09,18,11,24,21.10
2012,09,18,11,25,21.10
2012,09,18,11,26,21.10
2012,09,18,11,27,21.10
2012,09,18,11,28,21.20
2012,09,18,11,29,21.30
2012,09,18,11,30,21.30
2012,09,18,11,31,21.40
2012,09,18,11,32,21.50
2012,09,18,11,33,21.50
2012,09,18,11,34,21.50
2012,09,18,11,35,21.60
2012,09,18,11,36,21.60
2012,09,18,11,37,21.60
2012,09,18,11,38,21.60
2012,09,18,11,39,21.70
2012,09,18,11,40,21.70
2012,09,18,11,41,21.80
2012,09,18,11,42,21.90
2012,09,18,11,43,21.90
2012,09,18,11,44,22.00
2012,09,18,11,45,22.10
2012,09,18,11,46,22.20
2012,09,18,11,47,22.30
2012,09,18,11,48,22.30
2012,09,18,11,49,22.40
2012,09,18,11,50,22.50
2012,09,18,11,51,22.50
2012,09,18,11,52,22.60
2012,09,18,11,53,22.70
2012,09,18,11,54,22.70
2012,09,18,11,55,22.60
2012,09,18,11,56,22.60
2012,09,18,11,57,22.60
2012,09,18,11,58,22.60
2012,09,18,11,59,22.60
2012,09,18,12,00,22.60
2012,09,18,12,01,22.60
2012,09,18,12,02,22.60
2012,09,18,12,03,22.60
2012,09,18,12,04,22.60
2012,09,18,12,05,22.60
2012,09,18,12,06,22.60
2012,09,18,12,07,22.60
2012,09,18,12,08,22.60
2012,09,18,12,09,22.60
2012,09,18,12,10,22.60
2012,09,18,12,11,22.70
2012,09,18,12,12,22.80
2012,09,18,12,13,22.80
2012,09,18,12,14,22.80
2012,09,18,12,15,22.80
2012,09,18,12,16,22.90
2012,09,18,12,17,22.90
2012,09,18,12,18,22.90
2012,09,18,12,19,22.90
2012,09,18,12,20,22.90
2012,09,18,12,21,23.00
2012,09,18,12,22,23.00
2012,09,18,12,23,23.00
2012,09,18,12,24,23.10
2012,09,18,12,25,23.20
2012,09,18,12,26,23.20
2012,09,18,12,27,23.30
2012,09,18,12,28,23.30
2012,09,18,12,29,23.40
2012,09,18,12,30,23.50
2012,09,18,12,31,23.50
2012,09,18,12,32,23.60
2012,09,18,12,33,23.60
2012,09,18,12,34,23.70
2012,09,18,12,35,23.70
2012,09,18,12,36,23.70
2012,09,18,12,37,23.70
2012,09,18,12,38,23.70
2012,09,18,12,39,23.70
2012,09,18,12,40,23.70
2012,09,18,12,41,23.70
2012,09,18,12,42,23.80
2012,09,18,12,43,23.80
2012,09,18,12,44,23.80
2012,09,18,12,45,23.80
2012,09,18,12,46,23.80
2012,09,18,12,47,23.80
2012,09,18,12,48,23.80
2012,09,18,12,49,23.80
2012,09,18,12,50,23.90
2012,09,18,12,51,23.90
2012,09,18,12,52,24.00
2012,09,18,12,53,24.10
2012,09,18,12,54,24.10
2012,09,18,12,55,24.20
2012,09,18,12,56,24.20
2012,09,18,12,57,24.20
2012,09,18,12,58,24.20
2012,09,18,12,59,24.30
2012,09,18,13,00,24.30
2012,09,18,13,01,24.20
2012,09,18,13,02,24.20
2012,09,18,13,03,24.10
2012,09,18,13,04,24.10
2012,09,18,13,05,24.00
2012,09,18,13,06,23.90
2012,09,18,13,07,23.90
2012,09,18,13,08,23.80
2012,09,18,13,09,23.70
2012,09,18,13,10,23.70
2012,09,18,13,11,23.70
2012,09,18,13,12,23.70
2012,09,18,13,13,23.60
2012,09,18,13,14,23.50
2012,09,18,13,15,23.40
2012,09,18,13,16,23.30
2012,09,18,13,17,23.20
2012,09,18,13,18,23.10
2012,09,18,13,19,23.10
2012,09,18,13,20,23.00
2012,09,18,13,21,23.00
2012,09,18,13,22,23.10
2012,09,18,13,23,23.10
2012,09,18,13,24,23.10
2012,09,18,13,25,23.10
2012,09,18,13,26,23.10
2012,09,18,13,27,23.20
2012,09,18,13,28,23.10
2012,09,18,13,29,23.10
2012,09,18,13,30,23.10
2012,09,18,13,31,23.20
2012,09,18,13,32,23.20
2012,09,18,13,33,23.20
2012,09,18,13,34,23.20
2012,09,18,13,35,23.30
2012,09,18,13,36,23.30
2012,09,18,13,37,23.40
2012,09,18,13,38,23.40
2012,09,18,13,39,23.50
2012,09,18,13,40,23.60
2012,09,18,13,41,23.60
2012,09,18,13,42,23.70
2012,09,18,13,43,23.70
2012,09,18,13,44,23.80
2012,09,18,13,45,23.80
2012,09,18,13,46,23.80
2012,09,18,13,47,23.90
2012,09,18,13,48,23.90
2012,09,18,13,49,23.80
2012,09,18,13,50,23.80
2012,09,18,13,51,23.80
2012,09,18,13,52,23.80
2012,09,18,13,53,23.90
2012,09,18,13,54,23.90
2012,09,18,13,55,23.90
2012,09,18,13,56,23.90
2012,09,18,13,57,24.00
2012,09,18,13,58,24.00
2012,09,18,13,59,24.10
2012,09,18,14,00,24.20
2012,09,18,14,01,24.30
2012,09,18,14,02,24.30
2012,09,18,14,03,24.40
2012,09,18,14,04,24.50
2012,09,18,14,05,24.50
2012,09,18,14,06,24.60
2012,09,18,14,07,24.60
2012,09,18,14,08,24.60
2012,09,18,14,09,24.60
2012,09,18,14,10,24.50
2012,09,18,14,11,24.50
2012,09,18,14,12,24.40
2012,09,18,14,13,24.40
2012,09,18,14,14,24.40
2012,09,18,14,15,24.50
2012,09,18,14,16,24.50
2012,09,18,14,17,24.50
2012,09,18,14,18,24.40
2012,09,18,14,19,24.40
2012,09,18,14,20,24.40
2012,09,18,14,21,24.30
2012,09,18,14,22,24.30
2012,09,18,14,23,24.30
2012,09,18,14,24,24.30
2012,09,18,14,25,24.30
2012,09,18,14,26,24.30
2012,09,18,14,27,24.30
2012,09,18,14,28,24.30
2012,09,18,14,29,24.30
2012,09,18,14,30,24.30
2012,09,18,14,31,24.40
2012,09,18,14,32,24.40
2012,09,18,14,33,24.50
2012,09,18,14,34,24.60
2012,09,18,14,35,24.60
2012,09,18,14,36,24.70
2012,09,18,14,37,24.70
2012,09,18,14,38,24.70
2012,09,18,14,39,24.70
2012,09,18,14,40,24.70
2012,09,18,14,41,24.70
2012,09,18,14,42,24.70
2012,09,18,14,43,24.70
2012,09,18,14,44,24.70
2012,09,18,14,45,24.70
2012,09,18,14,46,24.70
2012,09,18,14,47,24.70
2012,09,18,14,48,24.70
2012,09,18,14,49,24.70
2012,09,18,14,50,24.70
2012,09,18,14,51,24.70
2012,09,18,14,52,24.70
2012,09,18,14,53,24.70
2012,09,18,14,54,24.80
2012,09,18,14,55,24.80
2012,09,18,14,56,24.80
2012,09,18,14,57,24.80
2012,09,18,14,58,24.80
2012,09,18,14,59,24.80
2012,09,18,15,00,24.80
2012,09,18,15,01,24.80
2012,09,18,15,02,24.80
2012,09,18,15,03,24.80
2012,09,18,15,04,24.90
2012,09,18,15,05,24.90
2012,09,18,15,06,25.00
2012,09,18,15,07,25.00
2012,09,18,15,08,25.10
2012,09,18,15,09,25.20
2012,09,18,15,10,25.20
2012,09,18,15,11,25.20
2012,09,18,15,12,25.20
2012,09,18,15,13,25.20
2012,09,18,15,14,25.20
2012,09,18,15,15,25.10
2012,09,18,15,16,25.10
2012,09,18,15,17,25.10
2012,09,18,15,18,25.10
2012,09,18,15,19,25.10
2012,09,18,15,20,25.10
2012,09,18,15,21,25.20
2012,09,18,15,22,25.20
2012,09,18,15,23,25.20
2012,09,18,15,24,25.20
2012,09,18,15,25,25.20
2012,09,18,15,26,25.20
2012,09,18,15,27,25.20
2012,09,18,15,28,25.20
2012,09,18,15,29,25.20
2012,09,18,15,30,25.20
2012,09,18,15,31,25.20
2012,09,18,15,32,25.20
2012,09,18,15,33,25.20
2012,09,18,15,34,25.10
2012,09,18,15,35,25.10
2012,09,18,15,36,25.10
2012,09,18,15,37,25.10
2012,09,18,15,38,25.10
2012,09,18,15,39,25.20
2012,09,18,15,40,25.20
2012,09,18,15,41,25.20
2012,09,18,15,42,25.30
2012,09,18,15,43,25.30
2012,09,18,15,44,25.30
2012,09,18,15,45,25.30
2012,09,18,15,46,25.30
2012,09,18,15,47,25.30
2012,09,18,15,48,25.30
2012,09,18,15,49,25.20
2012,09,18,15,50,25.20
2012,09,18,15,51,25.10
2012,09,18,15,52,25.10
2012,09,18,15,53,25.00
2012,09,18,15,54,24.90
2012,09,18,15,55,24.90
2012,09,18,15,56,24.90
2012,09,18,15,57,24.90
2012,09,18,15,58,24.80
2012,09,18,15,59,24.90
2012,09,18,16,00,24.90
2012,09,18,16,01,24.90
2012,09,18,16,02,24.80
2012,09,18,16,03,24.80
2012,09,18,16,04,24.80
2012,09,18,16,05,24.80
2012,09,18,16,06,24.80
2012,09,18,16,07,24.70
2012,09,18,16,08,24.70
2012,09,18,16,09,24.70
2012,09,18,16,10,24.70
2012,09,18,16,11,24.80
2012,09,18,16,12,24.80
2012,09,18,16,13,24.80
2012,09,18,16,14,24.80
2012,09,18,16,15,24.90
2012,09,18,16,16,24.90
2012,09,18,16,17,24.90
2012,09,18,16,18,24.90
2012,09,18,16,19,24.90
2012,09,18,16,20,24.90
2012,09,18,16,21,25.00
2012,09,18,16,22,25.00
2012,09,18,16,23,25.10
2012,09,18,16,24,25.10
2012,09,18,16,25,25.10
2012,09,18,16,26,25.10
2012,09,18,16,27,25.10
2012,09,18,16,28,25.00
2012,09,18,16,29,25.00
2012,09,18,16,30,25.00
2012,09,18,16,31,25.00
2012,09,18,16,32,25.00
2012,09,18,16,33,25.00
2012,09,18,16,34,25.10
2012,09,18,16,35,25.10
2012,09,18,16,36,25.20
2012,09,18,16,37,25.20
2012,09,18,16,38,25.30
2012,09,18,16,39,25.30
2012,09,18,16,40,25.40
2012,09,18,16,41,25.40
2012,09,18,16,42,25.40
2012,09,18,16,43,25.40
2012,09,18,16,44,25.40
2012,09,18,16,45,25.40
2012,09,18,16,46,25.40
2012,09,18,16,47,25.30
2012,09,18,16,48,25.30
2012,09,18,16,49,25.30
2012,09,18,16,50,25.30
2012,09,18,16,51,25.40
2012,09,18,16,52,25.40
2012,09,18,16,53,25.40
2012,09,18,16,54,25.40
2012,09,18,16,55,25.40
2012,09,18,16,56,25.40
2012,09,18,16,57,25.50
2012,09,18,16,58,25.50
2012,09,18,16,59,25.50
2012,09,18,17,00,25.50
2012,09,18,17,01,25.50
2012,09,18,17,02,25.50
2012,09,18,17,03,25.50
2012,09,18,17,04,25.50
2012,09,18,17,05,25.50
2012,09,18,17,06,25.50
2012,09,18,17,07,25.40
2012,09,18,17,08,25.40
2012,09,18,17,09,25.40
2012,09,18,17,10,25.40
2012,09,18,17,11,25.40
2012,09,18,17,12,25.40
2012,09,18,17,13,25.40
2012,09,18,17,14,25.40
2012,09,18,17,15,25.30
2012,09,18,17,16,25.30
2012,09,18,17,17,25.30
2012,09,18,17,18,25.30
2012,09,18,17,19,25.30